Torna al catalogo

COSMOS 2165

AttivoMilitarePO
NORAD 21779·PAYLOAD·🇷🇺 Russia

Lanciato Nov 12, 1991 da Plesetsk Cosmodrome

Loading…

Prossimi Passaggi (prossime 24 ore)

TLE

AggiornatoSource: Space-Track

Epoca: Sep 14, 2026, 12:01 UTC

1 21779U 91077A   26257.50088315  .00000035  00000-0  13203-3 0  9992
2 21779  82.6106 175.1674 0009560 206.4466 327.8403 12.64923084608280

Traccia COSMOS 2165 in tempo reale con AllMySat

Download on the App Store